User: anonymous   Login
Location: Canazei
(46.4667°N, 11.7667°E)
Time: 08:22:06
(UTC+00:00)
Language:

Okean 2 Rocket - Orbit

View from above orbital plane
View from above orbital plane
View from above satellite
View from above satellite

Ground track
Ground track

The orbit data is extracted from the following two-line orbital elements,

1 20511U 90018B   21166.90424179  .00000068  00000-0  58780-5 0  9996
2 20511  82.5238  34.6416 0017725  11.0137 359.8080 14.80081086666870
Epoch (UTC): 15 June 2021 21:42:06
Eccentricity: 0.0017725
inclination: 82.5238°
perigee height: 616 km
apogee height: 641 km
right ascension of ascending node: 34.6416°
argument of perigee: 11.0137°
revolutions per day: 14.80081086
mean anomaly at epoch: 359.8080°
orbit number at epoch: 66687

The dashed part of the orbit path shows where the satellite is in the earth's shadow,  

DLR